GFSSW_925_spd_159.txt.gz
Wind_Speed
23 23 23 21 20 19 17 15 12 11 9 8 6 5 5 7 8 4 3 3 5 9 10 12 9 19 10 3 2 4 4 2 4 7 5 6 5 2 3 5 3 3 5 13 18
25 25 24 21 20 19 17 15 13 12 10 8 7 6 4 6 6 5 6 8 10 10 6 9 7 14 4 3 3 4 3 5 2 1 7 5 6 6 4 4 3 5 9 19 20
26 24 25 23 21 19 17 16 13 11 10 8 7 5 3 1 2 2 1 4 7 8 6 3 6 3 3 3 2 1 4 3 4 5 3 6 4 1 7 3 5 10 9 8 11
27 25 25 24 23 20 19 17 15 12 10 8 6 4 3 3 5 1 1 5 4 3 6 3 2 1 2 2 3 1 2 3 2 5 4 3 3 4 4 5 5 8 7 6 4
32 28 25 24 23 22 19 18 16 14 11 8 6 5 4 2 3 2 1 6 4 2 5 4 4 2 2 2 3 2 3 5 3 7 5 4 3 1 3 4 3 5 7 6 2
31 32 28 25 25 23 21 18 17 15 12 9 7 7 1 4 2 3 0 4 3 2 4 5 2 3 3 2 4 2 4 3 3 3 3 3 4 5 4 6 6 2 5 3 4
33 33 32 28 25 24 23 21 18 15 14 11 8 5 1 5 2 2 3 1 1 5 3 3 3 2 2 2 1 3 3 5 1 2 2 5 6 8 8 7 7 5 3 4 8
35 34 31 31 29 25 24 21 19 17 14 12 9 3 4 5 5 1 5 1 1 3 5 2 4 2 2 1 4 3 3 1 4 8 3 8 7 6 10 10 10 7 6 6 7
35 35 33 32 31 27 26 23 20 17 13 11 7 3 4 3 4 8 5 2 2 3 4 2 3 2 3 5 3 0 3 5 4 7 5 5 5 5 4 5 7 6 6 6 5
34 35 34 34 33 29 27 24 18 14 13 11 2 1 4 4 6 8 10 2 2 3 2 2 3 3 1 3 5 5 4 4 6 5 4 4 8 9 7 6 8 7 8 8 6
35 35 34 35 38 35 32 24 10 2 7 5 6 3 4 9 7 3 9 3 1 3 3 2 3 5 6 5 5 4 1 5 2 1 2 5 7 9 11 7 9 9 8 7 7
17 33 32 36 40 40 38 9 9 9 5 3 2 2 3 6 4 4 8 5 4 5 3 3 4 6 8 7 6 2 1 2 2 5 3 6 12 12 13 12 10 11 9 8 6
31 26 35 36 42 42 35 22 23 14 5 4 5 5 4 6 6 8 8 4 4 6 7 6 4 12 5 3 5 3 4 2 1 3 2 3 9 5 7 16 13 7 5 2 14
28 28 37 36 37 38 30 27 27 6 4 6 9 6 6 3 2 10 18 6 5 10 7 5 5 7 4 4 4 2 4 4 1 3 3 4 5 6 5 4 6 7 8 10 11
30 36 37 42 22 30 30 25 28 10 5 8 8 10 9 9 9 4 17 1 7 7 6 7 7 5 7 4 6 3 1 7 3 2 3 3 2 7 5 6 5 7 9 8 8
34 36 35 43 21 38 38 31 20 6 8 5 6 12 12 7 4 4 4 0 2 2 2 3 3 5 6 3 5 4 3 4 3 3 2 9 7 5 3 5 4 6 7 9 9
31 39 36 45 15 48 46 16 6 6 1 8 7 11 17 10 9 7 11 10 7 6 7 3 3 1 2 5 2 5 4 2 1 2 5 2 4 7 4 3 7 10 8 8 8
34 37 43 41 43 57 33 9 9 4 7 4 8 12 12 14 7 10 14 11 9 3 8 6 3 7 5 6 6 7 6 4 6 4 3 1 5 5 5 2 7 9 10 9 9
33 31 41 38 58 47 14 10 8 7 8 10 11 13 5 12 6 10 14 14 13 9 5 5 5 2 3 3 7 6 9 3 3 1 2 4 5 7 6 5 7 12 9 8 8
30 28 24 58 55 35 12 10 6 7 13 16 6 6 11 12 6 13 14 12 7 9 2 3 3 1 2 3 2 3 4 1 2 3 4 4 3 5 6 6 6 7 7 7 6
26 7 22 50 45 14 10 5 5 6 17 5 6 7 7 10 8 9 14 6 13 12 5 2 4 2 5 6 11 4 3 4 3 3 4 0 4 4 4 6 8 7 8 8 8
2 3 22 47 10 4 8 10 4 13 2 4 5 5 10 16 5 7 6 2 15 14 12 5 3 4 4 2 3 6 4 4 3 3 3 3 5 6 6 7 8 7 7 7 8
4 3 2 33 6 7 7 5 5 10 5 6 5 4 5 10 5 5 6 4 7 12 13 7 4 2 2 3 4 6 7 5 3 2 5 4 4 4 7 5 4 5 4 4 6
3 4 3 4 1 10 16 9 7 6 4 5 5 6 8 12 3 8 4 1 2 7 9 7 3 4 7 3 5 7 11 11 9 4 7 10 7 13 12 2 4 5 4 9 10
3 2 1 4 5 13 6 8 16 5 3 4 3 5 9 5 3 6 5 4 4 6 5 8 3 8 2 3 2 3 6 8 9 7 8 2 8 7 8 11 11 7 6 8 9
3 3 2 3 11 15 8 11 22 6 8 5 8 6 4 8 7 8 7 4 5 2 5 1 2 3 3 5 4 4 6 4 4 5 6 9 15 9 10 6 8 11 11 12 9
3 4 3 3 5 7 4 11 12 11 2 6 11 6 6 5 6 4 5 6 9 7 6 6 5 3 5 2 3 6 8 10 8 6 6 10 15 10 12 12 8 9 9 10 11

GFSSW_925_spd_162.txt.gz
Wind_Speed
25 24 24 23 22 20 18 16 13 12 10 8 7 6 5 7 7 4 4 5 4 8 10 13 8 14 6 4 4 3 4 2 5 7 5 3 5 0 2 6 3 1 6 7 20
26 24 24 23 22 21 20 17 16 14 11 9 8 6 5 6 6 6 7 8 9 10 8 7 5 11 4 4 4 4 3 5 2 2 6 5 5 7 4 4 4 4 5 19 19
24 26 25 24 22 22 20 19 17 14 12 10 8 6 4 3 2 3 2 2 6 8 7 3 5 2 2 3 2 3 4 2 2 4 5 8 5 3 10 2 6 10 9 9 12
26 25 25 25 23 22 21 19 17 15 13 11 9 6 4 4 6 1 2 2 2 4 6 4 2 2 2 2 2 2 3 1 3 6 3 3 4 4 4 5 4 11 9 8 8
26 26 25 25 25 23 21 20 17 16 13 11 9 6 5 2 5 3 2 2 1 2 4 3 4 4 5 3 1 3 1 2 1 5 4 3 4 1 4 5 7 10 10 9 8
27 26 26 26 26 25 23 20 18 16 14 11 9 8 3 4 3 3 2 1 3 1 2 4 4 3 2 2 4 2 2 0 1 3 5 3 2 4 3 4 5 7 7 7 7
26 26 29 27 26 25 22 21 19 16 14 12 9 7 1 7 3 2 5 3 2 3 1 3 1 2 0 3 1 2 3 4 1 2 1 3 7 6 6 3 3 6 7 6 5
24 27 29 30 28 26 24 21 19 17 14 11 9 4 4 5 6 3 6 4 3 2 2 2 2 2 2 0 5 3 5 1 3 4 2 4 8 4 8 5 10 6 6 5 4
29 28 31 30 31 28 26 22 20 17 14 12 8 3 4 3 6 10 8 4 3 3 4 3 3 2 3 5 3 3 3 5 6 7 4 4 6 5 3 1 8 7 7 6 4
39 24 33 32 32 31 27 24 19 17 15 11 3 1 3 4 4 7 8 3 2 4 3 3 3 2 3 3 6 5 3 4 5 4 4 4 9 8 8 5 7 7 7 7 6
33 36 30 36 32 31 28 21 9 4 8 4 8 3 5 6 6 5 7 5 3 4 4 2 4 8 10 6 4 5 3 4 3 3 5 6 7 10 11 7 8 9 8 7 3
20 35 29 37 36 34 36 11 12 11 6 3 2 3 5 5 3 2 8 5 4 4 4 3 6 7 4 5 3 0 1 3 1 1 2 4 10 11 10 10 11 13 9 8 7
24 24 42 33 37 36 37 26 28 26 5 4 3 4 4 6 4 8 9 5 4 6 5 6 4 10 6 5 6 4 5 2 1 2 2 4 8 5 6 11 9 7 7 6 14
25 27 26 30 34 37 30 32 31 10 4 5 8 6 5 6 3 10 14 5 5 9 7 4 5 7 5 6 6 6 6 5 3 3 3 3 5 5 5 6 2 6 6 9 11
25 26 27 29 22 35 33 32 24 5 5 9 8 8 10 10 8 5 8 1 7 8 7 7 4 5 4 5 4 4 4 6 4 2 3 1 1 7 3 6 3 5 7 8 8
26 27 26 34 21 36 41 34 15 5 8 6 7 12 11 7 5 4 4 1 4 4 3 5 1 5 8 3 5 5 5 5 4 3 3 8 7 5 3 4 3 4 5 7 8
23 26 27 32 14 42 45 19 9 8 2 9 8 13 18 11 7 7 14 8 7 7 7 3 2 1 2 6 1 3 5 2 3 1 6 1 4 6 6 3 7 12 9 8 7
23 23 28 31 40 46 36 10 10 7 8 3 10 18 13 16 8 7 14 11 7 2 7 7 5 8 5 6 6 7 5 5 7 5 3 2 6 5 5 3 1 5 8 8 6
20 24 24 26 34 45 15 17 9 7 9 13 14 17 8 14 7 8 13 16 11 8 6 6 5 0 1 4 9 5 5 5 4 3 2 4 5 8 2 5 5 7 7 5 6
18 17 29 29 34 27 15 10 6 7 14 18 9 9 12 19 9 12 16 15 7 9 4 6 3 2 2 3 2 5 7 2 2 2 4 3 3 4 2 4 3 6 7 8 6
14 5 18 36 37 12 17 10 5 9 16 7 7 7 7 16 9 15 16 3 17 12 6 3 4 2 5 7 9 4 3 3 4 4 3 1 4 5 2 3 8 8 8 8 9
5 10 11 40 17 11 9 11 7 17 3 5 5 6 12 14 9 9 10 4 16 12 9 2 3 3 5 2 4 3 5 6 4 4 3 3 4 1 0 4 7 8 6 5 6
4 5 10 42 14 11 8 6 8 18 6 6 5 4 6 10 5 5 6 6 12 11 14 5 4 2 2 3 3 4 4 4 4 2 5 4 4 1 7 7 6 6 6 7 9
4 5 2 5 1 12 15 15 10 1 3 5 6 8 10 11 4 7 5 1 5 8 9 11 4 5 5 2 5 5 6 7 6 4 3 7 3 5 4 3 4 4 7 8 7
2 3 2 4 5 14 11 15 22 7 1 5 4 8 10 6 4 5 4 3 5 11 5 6 5 6 3 5 4 4 11 15 15 13 10 3 7 7 9 6 7 7 3 3 7
4 3 2 3 15 17 12 16 27 7 7 5 11 11 6 12 8 10 8 4 5 2 5 8 2 3 1 3 1 3 6 7 6 4 7 8 13 8 9 6 7 8 8 8 9
4 2 3 9 13 10 4 17 23 12 6 7 18 14 7 10 7 5 3 6 11 10 5 8 6 3 3 1 2 6 7 7 5 6 8 8 10 4 7 7 8 8 8 9 10

GFSSW_925_spd_165.txt.gz
Wind_Speed
27 25 24 24 23 20 18 16 15 13 11 9 7 5 5 7 8 7 6 5 5 9 11 15 9 13 6 4 4 3 4 1 4 6 4 6 5 4 1 6 3 2 6 4 17
24 25 24 24 24 23 21 18 16 15 12 10 8 6 4 5 8 9 10 9 9 10 8 8 6 11 4 4 3 4 4 7 3 2 2 3 5 10 6 5 2 3 3 14 22
23 24 24 24 23 23 22 20 18 16 14 12 9 7 4 2 1 5 6 7 6 6 5 3 4 2 2 2 1 2 4 3 1 1 2 3 2 2 8 3 6 11 9 10 13
27 24 23 24 24 23 22 21 19 17 15 12 10 7 4 3 6 1 2 1 2 4 4 2 1 1 1 2 1 2 1 1 2 4 2 4 1 2 1 4 7 10 12 9 8
25 26 24 24 24 23 22 21 19 17 15 12 10 8 5 2 7 4 2 1 0 1 3 3 3 4 4 2 1 2 2 2 2 5 3 1 3 2 2 4 2 10 9 9 9
22 25 25 24 24 24 23 22 20 18 15 13 10 9 4 4 3 5 3 1 2 2 3 4 4 2 3 1 3 1 1 2 3 2 4 2 1 4 1 2 6 7 9 9 9
22 22 22 25 25 25 24 22 21 19 15 12 10 8 2 9 3 4 6 4 3 2 3 4 1 2 2 3 1 3 2 4 2 1 1 0 5 5 2 6 1 4 6 6 9
34 19 25 25 25 25 25 23 20 18 15 13 11 4 5 5 7 5 5 5 4 2 4 4 2 3 3 2 5 4 4 1 2 2 1 4 6 4 4 3 7 6 6 5 3
30 28 25 24 26 25 24 24 20 17 15 13 8 3 5 2 6 11 4 3 3 3 3 5 4 3 4 5 3 4 3 4 6 5 2 3 5 4 2 6 5 5 8 6 4
27 30 27 24 25 26 25 24 21 18 15 9 5 2 3 4 4 6 8 3 1 3 3 4 4 3 3 3 6 6 4 4 5 3 4 4 9 7 6 4 7 7 5 8 6
20 29 32 28 27 29 28 19 9 6 9 5 8 3 4 6 5 4 6 4 2 4 4 1 4 8 11 4 3 5 3 4 3 4 4 6 8 9 9 6 8 8 7 7 5
20 20 30 38 30 31 32 8 10 6 5 3 2 1 3 4 3 2 7 5 4 4 4 4 6 4 4 3 4 1 3 4 1 1 5 3 10 10 9 7 9 11 9 9 6
23 21 23 32 22 30 33 26 21 21 4 2 3 3 3 4 3 7 8 4 3 5 5 6 4 8 6 4 5 2 3 2 0 3 2 5 7 6 6 6 7 7 8 7 12
22 23 21 25 17 23 24 33 26 11 3 5 7 6 5 5 3 6 10 5 2 8 6 3 3 6 5 4 6 4 6 4 3 3 3 2 5 6 4 7 5 5 7 8 9
21 22 23 31 14 17 25 36 25 5 7 11 9 9 9 8 7 3 6 3 7 6 6 7 5 4 3 5 7 5 5 5 2 1 2 1 1 7 4 6 6 1 4 5 7
22 21 20 21 32 23 32 36 14 6 7 7 8 10 11 5 3 4 4 2 4 4 2 5 1 6 9 4 6 6 6 6 4 2 3 7 7 5 4 4 1 3 5 6 7
23 20 22 20 13 51 33 15 10 8 5 10 9 14 19 10 6 6 13 9 7 7 6 2 2 1 3 6 2 4 6 1 2 2 6 1 2 7 7 5 4 8 9 7 6
22 19 22 26 20 35 30 10 12 7 7 3 10 18 15 13 8 7 14 12 8 3 5 10 4 8 6 7 7 5 6 5 7 4 4 3 6 5 2 5 5 8 8 7 6
18 17 17 20 22 32 11 17 10 10 9 13 17 18 9 13 7 11 14 15 11 9 6 5 4 2 2 3 8 5 6 5 5 2 2 3 6 9 2 6 7 7 7 6 6
16 9 13 33 28 21 2 14 8 7 9 17 9 11 13 19 10 16 16 15 7 9 4 6 3 1 1 4 4 5 7 2 2 1 4 3 5 4 2 3 4 5 6 6 5
11 2 5 22 21 8 9 7 4 6 10 8 7 8 9 15 10 15 14 3 17 10 8 4 3 0 5 6 10 4 4 3 5 4 4 1 5 5 4 2 8 7 7 6 6
7 4 10 30 8 2 7 6 4 12 3 4 5 6 12 20 12 15 10 6 14 13 10 4 3 5 11 2 3 4 5 5 4 4 3 2 5 3 5 4 6 6 5 4 6
3 4 7 19 9 4 3 7 9 15 7 7 5 4 5 13 6 4 7 7 9 11 15 7 3 4 1 3 4 4 4 6 4 3 6 5 4 4 4 6 5 7 4 4 5
3 4 1 3 4 11 7 8 7 13 5 5 6 7 9 13 3 9 6 2 8 6 8 7 2 4 5 3 5 7 9 6 11 5 5 5 3 5 4 5 4 5 5 5 7
2 4 4 8 5 14 13 11 13 7 3 6 3 8 11 8 4 5 5 4 5 11 5 6 6 4 2 2 2 4 10 15 14 11 8 7 9 8 7 7 8 6 3 5 7
5 3 2 4 13 21 19 19 25 8 8 7 11 14 9 16 10 11 10 5 6 2 5 3 3 4 3 2 1 4 8 9 10 7 7 4 10 6 7 4 6 7 6 6 7
5 1 2 9 13 17 10 20 28 15 1 6 16 15 7 12 8 6 6 6 11 11 5 6 5 3 2 4 4 7 7 7 5 5 11 14 16 6 8 9 7 8 7 7 8

GFSSW_925_spd_171.txt.gz
Wind_Speed
14 17 18 17 17 16 17 9 7 12 8 8 7 4 3 6 8 8 3 1 5 10 11 12 8 12 4 4 4 3 4 3 6 6 3 4 4 1 2 5 1 3 3 2 24
12 14 16 18 16 16 16 18 9 7 7 7 5 3 1 5 7 6 5 7 8 9 7 8 5 8 4 3 3 4 4 7 3 3 2 3 2 7 4 3 3 2 1 7 22
6 13 14 17 18 18 18 14 17 12 9 6 5 3 2 4 4 1 3 3 6 7 3 1 2 2 3 1 2 2 4 5 2 2 2 2 3 5 7 3 6 9 6 11 13
21 8 12 16 18 19 19 18 16 13 12 11 7 4 4 6 4 1 2 3 3 3 1 3 2 3 2 3 1 3 3 4 3 1 4 3 3 4 5 5 1 6 7 10 10
16 14 10 14 15 18 18 19 18 16 14 12 9 7 7 5 5 2 2 2 3 2 1 2 3 4 4 3 2 2 3 4 3 2 3 3 2 3 6 3 5 5 10 12 11
19 17 14 10 14 15 18 19 19 17 15 14 11 9 6 4 3 5 3 2 3 3 2 2 4 3 4 2 3 2 3 3 2 2 1 4 3 3 2 2 1 6 7 6 8
13 19 17 11 13 13 17 19 20 19 17 15 12 10 4 8 4 5 4 3 2 2 2 2 2 3 4 4 1 3 2 2 3 3 2 1 3 6 4 2 5 6 6 6 7
14 17 14 10 6 13 14 18 19 19 17 15 13 7 4 5 8 4 5 4 3 2 2 3 3 4 4 3 5 4 4 2 2 3 1 4 8 4 5 6 6 6 5 5 4
15 11 19 22 15 14 13 18 20 19 17 15 11 5 5 3 5 9 7 6 6 4 3 4 2 3 4 6 3 5 4 4 6 2 1 3 7 3 1 4 6 6 5 4 4
17 12 15 22 20 16 13 16 22 21 19 11 7 2 4 5 7 12 9 10 3 5 3 4 4 3 3 3 6 6 3 2 3 3 3 1 9 5 2 2 5 5 4 4 6
19 13 13 22 22 30 12 8 8 5 12 6 9 3 5 9 9 7 9 8 4 4 5 2 3 6 6 1 3 7 4 2 2 2 1 4 7 13 6 5 7 8 7 7 7
12 13 11 20 22 25 20 4 5 3 7 2 5 2 6 8 4 2 13 6 5 5 5 4 4 4 6 5 5 4 4 2 2 2 3 3 11 12 7 7 9 12 12 11 5
11 11 9 16 21 17 16 12 4 13 5 4 4 4 4 7 4 7 8 5 5 5 4 5 1 7 7 3 6 2 5 3 3 2 1 5 7 5 3 4 6 6 7 7 12
13 12 7 8 15 14 8 22 16 6 3 8 10 5 6 5 3 1 7 5 3 6 6 3 2 6 5 4 4 4 5 5 2 2 3 3 5 6 4 7 4 7 4 6 8
14 11 10 12 11 13 12 24 14 3 7 12 8 10 6 7 9 3 2 5 8 6 7 4 6 7 4 5 6 5 5 5 2 3 3 2 1 7 4 5 3 6 4 4 4
17 12 10 11 11 3 16 14 5 4 7 10 9 10 11 4 2 4 3 5 5 5 4 2 1 5 7 3 5 8 6 6 4 2 2 4 4 5 3 2 4 2 1 3 4
15 14 11 7 3 12 19 7 3 3 4 7 8 14 16 6 5 5 10 6 6 5 4 1 1 1 3 7 3 2 5 3 3 2 5 1 2 9 7 5 4 7 3 4 5
15 12 8 8 8 14 10 3 5 4 6 1 10 18 10 13 3 6 14 11 4 5 4 6 2 7 4 5 6 4 5 4 6 3 3 1 5 5 2 2 4 4 6 6 5
15 10 5 10 6 11 3 3 4 0 4 9 15 19 6 11 7 10 15 12 8 7 6 5 1 1 1 3 5 6 4 4 6 2 2 3 6 8 2 3 5 4 6 6 5
15 8 5 10 11 5 1 3 6 4 5 14 8 8 13 17 6 9 15 7 7 6 3 6 4 2 1 3 3 4 7 3 2 1 4 4 4 5 2 2 2 4 5 5 4
11 3 5 14 13 2 2 3 2 4 2 4 4 6 8 14 7 9 15 3 7 9 4 5 3 1 3 6 8 4 3 3 4 3 4 1 5 5 4 4 6 7 6 6 6
6 2 6 22 3 1 3 4 4 4 6 4 3 4 8 15 7 9 11 5 10 14 9 5 4 4 6 0 1 2 6 5 4 4 3 2 5 2 6 6 6 6 5 5 6
3 2 12 11 4 2 2 3 5 5 5 4 4 3 3 9 6 5 7 5 10 14 13 7 2 4 1 1 2 4 4 4 4 3 5 4 4 2 3 3 6 8 7 6 5
3 3 2 2 2 6 3 4 5 5 6 8 3 5 7 11 4 8 6 2 7 8 9 7 3 5 8 5 6 6 7 10 10 7 5 7 2 2 3 5 4 6 6 7 6
2 5 4 5 8 7 11 8 9 5 2 4 4 7 9 6 3 5 5 4 3 9 6 6 5 4 2 2 3 4 9 10 17 15 9 8 12 7 9 11 10 9 8 7 7
6 4 3 1 5 9 11 9 11 6 11 8 12 10 8 10 11 10 10 6 6 4 11 3 2 3 1 3 1 4 9 12 17 13 12 7 9 8 9 4 6 9 7 7 10
6 4 5 7 7 9 10 11 22 12 8 10 20 16 16 4 5 9 7 9 8 11 13 9 5 3 3 2 4 10 14 13 9 11 16 18 20 7 7 11 12 13 12 11 9

GFSSW_925_spd_174.txt.gz
Wind_Speed
10 12 16 15 17 15 13 20 8 18 14 11 8 7 5 2 0 1 2 2 2 6 9 11 7 9 4 3 3 1 3 5 6 8 6 9 10 3 2 6 3 5 1 3 20
9 5 12 16 15 14 15 14 15 9 6 9 7 5 3 2 1 4 2 4 5 6 5 7 5 8 2 2 2 1 2 5 2 3 5 10 8 10 6 7 6 6 4 11 20
14 7 4 12 14 14 13 13 14 13 11 4 4 3 3 2 3 2 2 1 1 2 1 2 2 2 1 1 2 2 2 5 3 2 2 8 7 6 7 9 11 13 12 17 20
18 14 11 8 13 16 17 17 15 17 19 16 6 6 2 2 5 3 4 3 2 3 4 4 1 2 2 2 1 3 2 2 5 2 3 4 5 6 12 6 1 5 12 18 18
14 15 11 6 10 15 17 19 21 22 21 16 15 8 5 2 3 7 6 5 5 5 4 4 4 3 4 3 3 2 4 2 2 2 2 2 4 6 9 8 1 5 10 16 17
7 15 15 15 9 13 17 19 19 20 21 18 15 12 6 10 5 8 7 7 7 6 4 3 3 2 4 1 2 3 4 4 2 1 0 3 2 2 4 6 6 7 13 15 17
13 8 17 13 5 12 17 20 21 20 20 18 15 12 3 7 5 8 8 8 8 6 5 3 4 1 5 5 1 4 4 2 5 3 2 2 4 9 4 5 8 8 10 11 14
16 10 14 17 5 10 15 21 20 22 19 16 15 9 4 5 6 7 9 8 8 7 6 6 5 6 2 6 3 3 1 4 2 4 2 4 11 8 3 5 8 8 9 11 11
11 13 9 17 13 7 10 18 22 22 20 18 11 5 3 5 7 9 9 8 8 7 7 7 2 3 4 6 4 1 5 8 2 1 1 7 7 2 1 4 8 8 10 10 10
11 12 11 13 13 9 10 14 21 21 21 12 7 4 5 6 8 12 10 12 5 9 6 3 2 4 5 7 11 8 6 3 5 2 3 6 16 5 1 4 8 10 9 11 12
11 13 10 8 14 15 10 12 10 6 14 6 10 1 9 10 12 8 14 9 5 5 6 2 6 11 13 9 2 6 5 6 2 1 3 8 14 14 10 10 11 11 11 11 12
10 10 12 10 16 18 13 5 5 5 7 1 5 2 8 10 5 7 14 9 11 10 9 5 10 7 7 7 5 5 5 3 1 1 3 5 15 17 13 13 15 17 15 14 12
10 8 7 6 15 16 13 12 6 9 4 5 7 5 5 6 5 12 10 7 13 12 14 10 2 12 9 8 10 4 7 3 2 1 1 7 10 7 4 8 10 12 14 16 16
12 9 6 6 11 14 10 19 9 6 3 8 12 7 6 7 4 2 7 5 5 11 11 4 4 14 12 11 10 9 7 6 5 3 4 3 5 4 3 6 6 6 7 11 13
13 10 10 9 6 9 8 20 13 2 5 11 8 14 7 7 16 5 2 2 11 8 7 6 9 14 13 8 9 2 8 6 2 3 3 4 4 5 3 4 3 4 2 2 4
15 12 11 10 6 4 13 20 10 3 7 7 8 12 14 5 3 8 5 5 5 5 6 4 1 4 4 3 9 13 9 6 3 2 4 4 6 5 4 1 1 4 3 1 1
16 13 11 12 6 17 25 8 4 5 1 6 8 15 17 7 7 15 16 11 8 8 8 4 3 2 3 9 5 4 10 2 4 4 3 3 5 9 5 6 7 9 3 1 4
17 13 9 7 12 16 7 2 3 4 4 2 9 18 11 13 6 13 19 14 6 3 10 9 5 9 6 4 8 7 5 3 5 4 2 2 6 3 1 2 4 3 3 4 6
20 13 10 9 10 16 6 2 5 2 2 5 15 14 5 13 9 13 17 16 14 9 6 7 3 2 2 2 10 7 8 2 5 1 2 4 4 9 2 1 0 2 4 6 6
15 8 6 11 9 7 2 3 4 5 2 4 3 7 8 20 11 16 17 15 10 8 2 6 6 1 2 3 3 5 12 4 1 4 5 3 4 6 2 2 3 5 6 7 7
13 4 9 13 9 3 2 3 2 4 9 3 3 6 9 12 13 15 18 9 12 10 3 4 3 4 5 9 13 5 5 1 3 1 2 2 3 2 4 3 3 7 8 9 9
5 3 12 20 3 1 2 5 4 5 4 4 3 3 7 16 8 13 18 10 16 17 10 4 4 4 7 3 3 4 7 7 5 5 3 1 4 4 4 5 6 7 8 8 7
3 3 8 9 5 4 2 2 3 5 4 5 2 6 3 11 6 11 9 4 16 17 18 10 5 5 3 3 2 7 8 10 3 2 8 5 3 3 3 5 6 11 11 9 9
3 4 2 2 1 6 7 5 4 3 5 6 3 5 3 11 3 10 12 2 10 13 6 8 4 4 9 3 10 11 16 16 16 6 8 13 8 7 5 7 9 11 11 11 10
2 3 3 6 9 7 11 11 10 7 4 6 3 7 5 3 6 7 6 5 6 10 6 9 4 5 2 2 5 7 18 20 22 21 12 10 20 17 12 13 15 16 12 10 11
5 4 1 2 10 10 8 8 14 6 9 8 7 15 14 6 11 9 9 8 7 8 11 5 3 4 3 1 1 6 14 19 21 22 23 21 23 13 15 11 14 17 17 15 15
3 2 1 9 7 10 10 16 17 10 7 7 16 8 14 17 10 6 1 6 9 13 14 11 6 4 6 2 3 10 16 17 17 22 22 22 21 13 12 14 17 19 18 18 16